EW2359 Weather Reports


time (UTC)temp
F
wind
direction
speed
knots
gust
knots
rain 1hr
in
rain 24hr
in
rain mn
in
humidity
%
barometer
mb
20260503213544 63 150 1.7 9.6 0.00 0.00 0.00 46 1011.4
20260503212544 63 258 3.5 8.7 0.00 0.00 0.00 46 1011.7
20260503212044 63 161 5.2 8.7 0.00 0.00 0.00 45 1011.9
20260503211544 63 206 3.5 7.8 0.00 0.00 0.00 46 1011.9
20260503211044 63 142 2.6 7.8 0.00 0.00 0.00 46 1012.0
20260503210543 63 176 5.2 7.8 0.00 0.00 0.00 46 1012.3
20260503210043 63 214 2.6 13.0 0.00 0.00 0.00 46 1012.4
20260503205543 63 218 7.0 13.0 0.00 0.00 0.00 46 1012.6
20260503205043 63 268 7.0 10.4 0.00 0.00 0.00 46 1012.7
20260503204544 63 244 3.5 14.8 0.00 0.00 0.00 46 1012.7
20260503204043 63 251 6.1 14.8 0.00 0.00 0.00 46 1012.8
20260503203043 63 249 2.6 7.8 0.00 0.00 0.00 45 1013.2
20260503202543 63 251 4.3 7.8 0.00 0.00 0.00 44 1013.4
20260503202043 63 207 2.6 12.2 0.00 0.00 0.00 46 1013.5
20260503201543 63 268 1.7 12.2 0.00 0.00 0.00 44 1013.7
20260503201043 63 233 3.5 7.8 0.00 0.00 0.00 44 1013.7
20260503200543 63 222 1.7 10.4 0.00 0.00 0.00 44 1013.9
20260503200043 63 215 3.5 10.4 0.00 0.00 0.00 46 1014.0
20260503195543 63 251 2.6 10.4 0.00 0.00 0.00 44 1014.2
20260503195043 64 211 7.0 8.7 0.00 0.00 0.00 46 1014.2
20260503194543 63 238 4.3 8.7 0.00 0.00 0.00 44 1014.4
20260503194043 62 268 0.9 8.7 0.00 0.00 0.00 45 1014.5
20260503193543 62 194 4.3 13.9 0.00 0.00 0.00 45 1014.8
20260503192543 64 214 7.0 12.2 0.00 0.00 0.00 43 1014.7
20260503192043 64 253 7.0 7.8 0.00 0.00 0.00 43 1014.6
20260503191543 64 138 0.9 7.8 0.00 0.00 0.00 42 1014.5
20260503191043 64 196 2.6 8.7 0.00 0.00 0.00 43 1014.4
20260503190543 64 203 2.6 8.7 0.00 0.00 0.00 42 1014.5
20260503185043 63 214 1.7 8.7 0.00 0.00 0.00 44 1014.8
20260503184543 63 214 5.2 8.7 0.00 0.00 0.00 43 1014.7
20260503184043 62 256 4.3 9.6 0.00 0.00 0.00 47 1015.0
20260503183543 62 156 3.5 12.2 0.00 0.00 0.00 44 1015.1
20260503183043 61 195 1.7 12.2 0.00 0.00 0.00 44 1015.1
20260503182543 61 249 11.3 11.3 0.00 0.00 0.00 46 1015.3
20260503182043 61 146 0.9 8.7 0.00 0.00 0.00 46 1015.5
20260503181043 61 198 5.2 10.4 0.00 0.00 0.00 43 1015.7
20260503180543 61 216 5.2 8.7 0.00 0.00 0.00 42 1015.9
20260503180042 61 317 0.0 8.7 0.00 0.00 0.00 43 1016.0
20260503175542 61 225 4.3 7.0 0.00 0.00 0.00 44 1016.1
20260503175042 61 201 1.7 12.2 0.00 0.00 0.00 43 1016.2
20260503174542 61 216 5.2 12.2 0.00 0.00 0.00 42 1016.3
20260503174042 61 260 5.2 9.6 0.00 0.00 0.00 42 1016.3
20260503173542 60 229 2.6 9.6 0.00 0.00 0.00 43 1016.4
20260503172542 61 176 2.6 7.0 0.00 0.00 0.00 43 1016.6
20260503172042 61 206 3.5 7.0 0.00 0.00 0.00 44 1016.7
20260503171542 60 262 2.6 6.1 0.00 0.00 0.00 44 1016.6
20260503171042 60 246 1.7 8.7 0.00 0.00 0.00 42 1016.8
20260503170542 60 270 2.6 8.7 0.00 0.00 0.00 41 1016.8
20260503150541 56 201 2.6 9.6 0.00 0.00 0.00 50 1018.2
20260503130540 48 228 6.1 7.8 0.00 0.00 0.00 62 1018.7
20260503110539 38 226 0.0 0.0 0.00 0.00 0.00 78 1017.9
20260503081537 39 264 0.0 0.0 0.00 0.00 0.00 77 1017.7
20260503081038 39 264 0.0 0.0 0.00 0.00 0.00 77 1017.6
20260503080538 39 264 0.0 0.9 0.00 0.00 0.00 77 1017.7
20260503072537 39 264 0.0 0.0 0.00 0.00 0.00 79 1017.6
20260503072037 39 264 0.0 0.0 0.00 0.00 0.00 79 1017.7
20260503071537 39 264 0.0 0.9 0.00 0.00 0.00 79 1017.7
20260503071037 39 264 0.0 1.7 0.00 0.00 0.00 79 1017.6
20260503070537 39 264 0.0 1.7 0.00 0.00 0.00 80 1017.7
20260503055037 40 291 0.0 0.0 0.00 0.00 0.00 77 1018.2
20260503054537 40 291 0.0 0.0 0.00 0.00 0.00 77 1018.2
20260503054036 40 291 0.0 0.0 0.00 0.00 0.00 78 1018.3
20260503053536 40 291 0.0 0.0 0.00 0.00 0.00 78 1018.3
20260503053036 40 291 0.0 0.0 0.00 0.00 0.00 78 1018.4
20260503052036 40 291 0.0 0.0 0.00 0.00 0.00 78 1018.3
20260503051536 40 291 0.0 0.0 0.00 0.00 0.00 78 1018.3
20260503051036 40 291 0.0 0.0 0.00 0.00 0.00 79 1018.3
20260503050536 40 291 0.0 0.0 0.00 0.00 0.00 79 1018.4
20260503050036 40 291 0.0 0.0 0.00 0.00 0.00 79 1018.4
20260503045536 40 291 0.0 0.0 0.00 0.00 0.00 79 1018.3
20260503045036 40 291 0.0 0.0 0.00 0.00 0.00 79 1018.3
20260503043536 40 291 0.0 0.0 0.00 0.00 0.00 79 1018.4
20260503043036 40 291 0.0 0.0 0.00 0.00 0.00 79 1018.3
20260503042535 41 291 0.0 0.0 0.00 0.00 0.00 79 1018.3
20260503042036 40 291 0.0 0.0 0.00 0.00 0.00 78 1018.3
20260503041035 41 291 0.0 0.0 0.00 0.00 0.00 78 1018.2
20260503040536 41 291 0.0 0.0 0.00 0.00 0.00 77 1018.2
20260503040036 41 291 0.0 0.0 0.00 0.00 0.00 76 1018.3
20260503035535 41 291 0.0 0.0 0.00 0.00 0.00 76 1018.2
20260503035035 41 291 0.0 0.0 0.00 0.00 0.00 75 1018.2
20260503034035 42 291 0.0 0.0 0.00 0.00 0.00 75 1018.3
20260503033535 42 291 0.0 0.0 0.00 0.00 0.00 75 1018.3
20260503033035 42 291 0.0 0.0 0.00 0.00 0.00 74 1018.4
20260503031035 42 291 0.0 0.0 0.00 0.00 0.00 71 1018.4
20260503030535 42 291 0.0 0.0 0.00 0.00 0.00 71 1018.4
20260503030035 42 291 0.0 0.0 0.00 0.00 0.00 70 1018.4
20260503025535 43 291 0.0 0.0 0.00 0.00 0.00 68 1018.4
20260503025035 43 291 0.0 0.0 0.00 0.00 0.00 68 1018.4
20260503024534 43 291 0.0 0.0 0.00 0.00 0.00 66 1018.3
20260503023534 44 291 0.0 0.0 0.00 0.00 0.00 66 1018.3
20260503023034 44 291 0.0 0.0 0.00 0.00 0.00 66 1018.2
20260503022534 44 291 0.0 0.0 0.00 0.00 0.00 65 1018.1
20260503022034 45 291 0.0 0.0 0.00 0.00 0.00 64 1018.2
20260503021534 45 291 0.0 0.0 0.00 0.00 0.00 61 1018.1
20260503021034 45 291 0.0 0.0 0.00 0.00 0.00 62 1018.1
20260503020534 46 291 0.0 0.0 0.00 0.00 0.00 62 1018.1
20260503020034 46 291 0.0 0.0 0.00 0.00 0.00 61 1018.0
20260503015535 46 291 0.0 0.0 0.00 0.00 0.00 58 1018.0
20260503015035 46 291 0.0 0.0 0.00 0.00 0.00 56 1017.8
20260503014534 46 291 0.0 0.0 0.00 0.00 0.00 55 1017.7
20260503014034 47 291 0.0 0.0 0.00 0.00 0.00 54 1017.7
20260503013534 47 291 0.0 0.0 0.00 0.00 0.00 54 1017.7
20260503013034 48 291 0.0 0.0 0.00 0.00 0.00 53 1017.7
20260503012533 48 291 0.0 0.9 0.00 0.00 0.00 50 1017.7
20260503012034 48 291 0.0 0.9 0.00 0.00 0.00 51 1017.7
20260503011534 49 291 0.0 0.0 0.00 0.00 0.00 52 1017.6
20260503011034 49 290 0.0 0.0 0.00 0.00 0.00 49 1017.6
20260503010534 49 290 0.0 0.0 0.00 0.00 0.00 47 1017.6
20260503010034 50 290 0.0 0.0 0.00 0.00 0.00 46 1017.7
20260503005533 50 290 0.0 0.0 0.00 0.00 0.00 45 1017.5
20260503005034 50 290 0.0 0.0 0.00 0.00 0.00 46 1017.5
20260503004533 51 290 0.0 0.0 0.00 0.00 0.00 45 1017.6
20260503003533 51 290 0.0 1.7 0.00 0.00 0.00 43 1017.6
20260503003033 51 290 0.0 1.7 0.00 0.00 0.00 43 1017.5
20260503002033 52 349 0.9 2.6 0.00 0.00 0.00 42 1017.4
20260503001033 52 351 0.9 2.6 0.00 0.00 0.00 41 1017.3
20260503000534 52 349 0.0 4.3 0.00 0.00 0.00 40 1017.3
20260503000033 53 349 0.9 4.3 0.00 0.00 0.00 38 1017.2
20260502235033 53 347 0.9 2.6 0.00 0.00 0.00 40 1017.1
20260502234533 53 326 0.9 2.6 0.00 0.00 0.00 40 1017.1
20260502234034 53 351 1.7 1.7 0.00 0.00 0.00 41 1017.1
20260502233534 53 234 0.0 4.3 0.00 0.00 0.00 40 1017.0
20260502233033 53 339 1.7 4.3 0.00 0.00 0.00 39 1017.0
20260502232533 53 28 3.5 5.2 0.00 0.00 0.00 38 1017.0
20260502231533 53 317 0.0 6.1 0.00 0.00 0.00 39 1017.1
20260502230533 53 344 1.7 8.7 0.00 0.00 0.00 38 1017.1
20260502230034 53 341 4.3 5.2 0.00 0.00 0.00 39 1017.2
20260502225033 54 337 1.7 7.0 0.00 0.00 0.00 37 1017.2
20260502224533 54 356 5.2 5.2 0.00 0.00 0.00 39 1017.1
20260502224033 54 356 1.7 3.5 0.00 0.00 0.00 39 1017.1
20260502223533 54 1 1.7 3.5 0.00 0.00 0.00 39 1017.2
20260502223033 54 338 0.0 4.3 0.00 0.00 0.00 39 1017.2
20260502221533 54 351 0.9 3.5 0.00 0.00 0.00 37 1017.0
20260502221033 54 318 1.7 3.5 0.00 0.00 0.00 38 1017.1
20260502220533 54 337 1.7 4.3 0.00 0.00 0.00 38 1017.1
20260502220033 54 339 1.7 4.3 0.00 0.00 0.00 39 1017.1
20260502215532 54 324 1.7 4.3 0.00 0.00 0.00 39 1017.1
20260502214032 54 6 7.8 7.8 0.00 0.00 0.00 38 1017.0